When you browse on this site, cookies collect data to enhance your experience and personalize the content and advertising you see.
Visit our Privacy Policy to learn more. By continuing to use the site, you agree to this use of cookies and data.
  • In Hungary
  • List of Countries
  • For 7 days
  • Water Temperature
  • Satellite Maps
  • Weather Map
  • News
  • Weather Widgets
  • user-avatar
    Login

    Hourly Weather Rochdale

    Today, 13 December, Thursday

    Time Temperature Precipitation Wind Pressure Humidity
    00:00 -1°C° 0 mm 7 mps 747 mmHg 75%
    01:00 -1°C° 0 mm 7 mps 747 mmHg 77%
    02:00 -1°C° 0 mm 7 mps 746 mmHg 78%
    03:00 -1°C° 0 mm 7 mps 746 mmHg 80%
    04:00 -1°C° 0 mm 7 mps 746 mmHg 80%
    05:00 -1°C° 0 mm 7 mps 746 mmHg 80%
    06:00 -1°C° 0 mm 7 mps 746 mmHg 81%
    07:00 -1°C° 0 mm 7 mps 746 mmHg 79%
    08:00 -1°C° 0 mm 7 mps 746 mmHg 78%
    09:00 -1°C° 0 mm 7 mps 747 mmHg 77%
    10:00 0°C° 0 mm 7 mps 747 mmHg 75%
    11:00 0°C° 0 mm 7 mps 747 mmHg 74%
    12:00 +2°C° 0 mm 7 mps 747 mmHg 73%
    13:00 +2°C° 0 mm 7 mps 747 mmHg 73%
    14:00 +2°C° 0 mm 6 mps 747 mmHg 74%
    15:00 +1°C° 0 mm 6 mps 748 mmHg 74%
    16:00 +1°C° 0 mm 6 mps 748 mmHg 75%
    17:00 +1°C° 0 mm 5 mps 748 mmHg 77%
    18:00 0°C° 0 mm 5 mps 749 mmHg 78%
    19:00 0°C° 0 mm 5 mps 749 mmHg 79%
    20:00 0°C° 0 mm 5 mps 749 mmHg 80%
    21:00 -1°C° 0 mm 4 mps 750 mmHg 82%
    22:00 -1°C° 0 mm 4 mps 750 mmHg 83%
    23:00 0°C° 0 mm 3 mps 751 mmHg 84%

    Tomorrow, 14 December, Friday

    Time Temperature Precipitation Wind Pressure Humidity
    00:00 +1°C° 0 mm 2 mps 751 mmHg 85%
    01:00 -1°C° 0 mm 3 mps 751 mmHg 85%
    02:00 -1°C° 0 mm 3 mps 751 mmHg 85%
    03:00 -1°C° 0 mm 3 mps 751 mmHg 84%
    04:00 -1°C° 0 mm 3 mps 751 mmHg 85%
    05:00 -1°C° 0 mm 3 mps 751 mmHg 85%
    06:00 -1°C° 0 mm 2 mps 751 mmHg 85%
    07:00 -1°C° 0 mm 2 mps 751 mmHg 85%
    08:00 -1°C° 0 mm 2 mps 752 mmHg 85%
    09:00 -1°C° 0 mm 2 mps 752 mmHg 85%
    10:00 0°C° 0 mm 3 mps 752 mmHg 80%
    11:00 0°C° 0 mm 4 mps 751 mmHg 75%
    12:00 +1°C° 0 mm 5 mps 751 mmHg 70%
    13:00 +1°C° 0 mm 5 mps 751 mmHg 71%
    14:00 0°C° 0 mm 4 mps 751 mmHg 72%
    15:00 0°C° 0 mm 4 mps 751 mmHg 73%
    16:00 0°C° 0 mm 4 mps 751 mmHg 75%
    17:00 -1°C° 0 mm 4 mps 750 mmHg 76%
    18:00 -1°C° 0 mm 4 mps 750 mmHg 78%
    19:00 -1°C° 0 mm 4 mps 750 mmHg 79%
    20:00 -1°C° 0 mm 4 mps 750 mmHg 80%
    21:00 -2°C° 0 mm 4 mps 750 mmHg 81%
    22:00 -1°C° 0 mm 5 mps 750 mmHg 80%
    23:00 -1°C° 0 mm 5 mps 749 mmHg 79%

    Day after tomorrow, 15 December, Saturday

    Time Temperature Precipitation Wind Pressure Humidity
    00:00 -1°C° 0 mm 5 mps 749 mmHg 78%
    01:00 -2°C° 0 mm 6 mps 749 mmHg 77%
    02:00 -2°C° 0 mm 6 mps 748 mmHg 77%
    03:00 -2°C° 0 mm 6 mps 748 mmHg 76%
    04:00 -2°C° 0 mm 6 mps 748 mmHg 76%
    05:00 -2°C° 0 mm 6 mps 747 mmHg 75%
    06:00 -2°C° 0 mm 7 mps 746 mmHg 74%
    07:00 -2°C° 0 mm 7 mps 746 mmHg 73%
    08:00 -2°C° 0 mm 7 mps 745 mmHg 72%
    09:00 -2°C° 0 mm 8 mps 745 mmHg 71%
    10:00 -2°C° 0.1 mm 8 mps 744 mmHg 69%
    11:00 -1°C° 0.1 mm 8 mps 743 mmHg 67%
    12:00 -1°C° 0.1 mm 9 mps 742 mmHg 66%
    13:00 -1°C° 0.8 mm 9 mps 741 mmHg 70%
    14:00 -1°C° 0.8 mm 9 mps 740 mmHg 74%
    15:00 -1°C° 0.8 mm 9 mps 739 mmHg 78%
    16:00 -1°C° 0.3 mm 9 mps 738 mmHg 80%
    17:00 -1°C° 0.3 mm 9 mps 737 mmHg 81%
    18:00 -1°C° 0.3 mm 9 mps 735 mmHg 83%
    19:00 0°C° 1.9 mm 10 mps 734 mmHg 85%
    20:00 +1°C° 1.9 mm 10 mps 732 mmHg 87%
    21:00 +1°C° 1.9 mm 11 mps 731 mmHg 88%
    22:00 +2°C° 0.9 mm 10 mps 729 mmHg 89%
    23:00 +3°C° 0.9 mm 10 mps 727 mmHg 89%

    16 December, Sunday

    Time Temperature Precipitation Wind Pressure Humidity
    00:00 +5°C° 0.9 mm 9 mps 725 mmHg 90%
    01:00 +6°C° 0.2 mm 9 mps 724 mmHg 88%
    02:00 +6°C° 0.2 mm 9 mps 723 mmHg 87%
    03:00 +6°C° 0.2 mm 9 mps 722 mmHg 86%
    04:00 +6°C° 0.7 mm 10 mps 723 mmHg 82%
    05:00 +4°C° 0.7 mm 12 mps 724 mmHg 78%
    06:00 +3°C° 0.7 mm 13 mps 724 mmHg 75%
    07:00 +3°C° 0.5 mm 13 mps 726 mmHg 73%
    08:00 +3°C° 0.5 mm 12 mps 727 mmHg 71%
    09:00 +3°C° 0.5 mm 12 mps 729 mmHg 70%
    10:00 +3°C° 0.2 mm 11 mps 730 mmHg 69%
    11:00 +3°C° 0.2 mm 10 mps 732 mmHg 68%
    12:00 +5°C° 0.2 mm 10 mps 733 mmHg 67%
    13:00 +4°C° 0 mm 8 mps 734 mmHg 69%
    14:00 +4°C° 0 mm 7 mps 735 mmHg 70%
    15:00 +4°C° 0 mm 6 mps 736 mmHg 72%
    16:00 +3°C° 0 mm 5 mps 736 mmHg 75%
    17:00 +4°C° 0 mm 4 mps 736 mmHg 79%
    18:00 +3°C° 0 mm 4 mps 737 mmHg 83%
    19:00 +3°C° 0 mm 3 mps 737 mmHg 85%
    20:00 +3°C° 0 mm 3 mps 738 mmHg 87%
    21:00 +2°C° 0 mm 3 mps 738 mmHg 89%
    22:00 +3°C° 0 mm 2 mps 739 mmHg 90%
    23:00 +3°C° 0 mm 2 mps 739 mmHg 90%

    17 December, Monday

    Time Temperature Precipitation Wind Pressure Humidity
    00:00 +3°C° 0 mm 2 mps 739 mmHg 91%
    01:00 +3°C° 0 mm 2 mps 740 mmHg 90%
    02:00 +2°C° 0 mm 2 mps 740 mmHg 90%
    03:00 +2°C° 0 mm 2 mps 740 mmHg 90%
    04:00 +2°C° 0 mm 2 mps 740 mmHg 89%
    05:00 +2°C° 0 mm 2 mps 741 mmHg 89%
    06:00 +2°C° 0 mm 2 mps 741 mmHg 89%
    07:00 +2°C° 0 mm 2 mps 742 mmHg 89%
    08:00 +2°C° 0 mm 2 mps 742 mmHg 89%
    09:00 +2°C° 0 mm 2 mps 743 mmHg 89%
    10:00 +3°C° 0 mm 2 mps 743 mmHg 87%
    11:00 +4°C° 0 mm 2 mps 743 mmHg 84%
    12:00 +4°C° 0 mm 3 mps 743 mmHg 82%
    13:00 +3°C° 0 mm 3 mps 743 mmHg 83%
    14:00 +3°C° 0 mm 3 mps 743 mmHg 85%
    15:00 +3°C° 0 mm 3 mps 742 mmHg 86%
    16:00 +3°C° 0 mm 4 mps 742 mmHg 87%
    17:00 +2°C° 0 mm 5 mps 742 mmHg 88%
    18:00 +2°C° 0 mm 5 mps 741 mmHg 89%
    19:00 +3°C° 0.2 mm 6 mps 741 mmHg 88%
    20:00 +3°C° 0.2 mm 7 mps 740 mmHg 88%
    21:00 +4°C° 0.2 mm 8 mps 739 mmHg 88%
    22:00 +4°C° 0.7 mm 8 mps 739 mmHg 88%
    23:00 +5°C° 0.7 mm 9 mps 738 mmHg 88%

    18 December, Tuesday

    Time Temperature Precipitation Wind Pressure Humidity
    00:00 +6°C° 0.7 mm 9 mps 737 mmHg 88%
    01:00 +6°C° 0.3 mm 9 mps 736 mmHg 88%
    02:00 +7°C° 0.3 mm 9 mps 735 mmHg 87%
    03:00 +7°C° 0.3 mm 9 mps 734 mmHg 86%
    04:00 +8°C° 0.2 mm 9 mps 734 mmHg 85%
    05:00 +8°C° 0.2 mm 10 mps 733 mmHg 84%
    06:00 +8°C° 0.2 mm 10 mps 732 mmHg 83%
    07:00 +8°C° 0.6 mm 10 mps 731 mmHg 82%
    08:00 +7°C° 0.6 mm 11 mps 731 mmHg 82%
    09:00 +7°C° 0.6 mm 12 mps 730 mmHg 81%
    10:00 +7°C° 1.8 mm 10 mps 730 mmHg 83%
    11:00 +6°C° 1.8 mm 9 mps 730 mmHg 84%
    12:00 +6°C° 1.8 mm 8 mps 729 mmHg 85%
    13:00 +5°C° 0.9 mm 6 mps 729 mmHg 87%
    14:00 +6°C° 0.9 mm 5 mps 729 mmHg 88%
    15:00 +7°C° 0.9 mm 3 mps 729 mmHg 89%
    16:00 +5°C° 0 mm 3 mps 729 mmHg 89%
    17:00 +5°C° 0 mm 3 mps 729 mmHg 89%
    18:00 +4°C° 0 mm 3 mps 729 mmHg 89%
    19:00 +4°C° 0 mm 4 mps 729 mmHg 88%
    20:00 +4°C° 0 mm 4 mps 730 mmHg 88%
    21:00 +4°C° 0 mm 4 mps 730 mmHg 88%
    22:00 +4°C° 0 mm 4 mps 730 mmHg 88%
    23:00 +4°C° 0 mm 4 mps 730 mmHg 88%
    Show more